FW3944 Weather Reports


Display with metric or nautical units.
time (UTC)temp
F
wind
direction
speed
MPH
gust
MPH
rain 1hr
in
rain 24hr
in
rain mn
in
humidity
%
barometer
mb
20260505041558 46 221 3.0 10.0 0.00 0.81 0.00 86 1005.7
20260505040100 47 240 2.0 8.0 0.00 0.81 0.00 85 1005.4
20260505034558 47 219 2.0 10.0 0.00 0.83 0.00 85 1005.4
20260505033056 47 286 1.0 7.0 0.00 0.83 0.00 83 1005.2
20260505031610 48 240 4.0 9.0 0.00 0.83 0.00 82 1005.0
20260505030059 48 267 3.0 11.0 0.00 0.83 0.00 82 1004.9
20260505024608 49 214 5.0 17.0 0.00 0.83 0.83 80 1004.5
20260505023056 49 184 6.0 14.0 0.00 0.83 0.83 80 1004.4
20260505021612 49 265 4.0 16.0 0.00 0.83 0.83 80 1004.4
20260505020057 49 14 5.0 12.0 0.00 0.83 0.83 80 1004.3
20260505014555 49 238 3.0 13.0 0.00 0.83 0.83 80 1004.2
20260505013058 49 205 3.0 17.0 0.00 0.83 0.83 80 1004.1
20260505011557 50 195 6.0 22.0 0.00 0.83 0.83 78 1004.2
20260505010056 50 211 6.0 18.0 0.00 0.83 0.83 78 1004.0
20260505004601 50 309 5.0 14.0 0.00 0.87 0.83 77 1003.9
20260505003055 50 242 7.0 20.0 0.00 0.87 0.83 76 1003.7
20260505001556 50 217 6.0 15.0 0.00 0.87 0.83 75 1003.5
20260505000058 50 240 2.0 8.0 0.00 0.87 0.83 71 1003.2
20260504234555 51 252 6.0 16.0 0.00 0.99 0.83 67 1003.0
20260504233102 50 244 8.0 18.0 0.00 0.99 0.83 68 1002.8
20260504231557 48 226 3.0 11.0 0.00 0.99 0.83 73 1002.5
20260504230058 48 246 1.0 9.0 0.00 0.99 0.83 73 1002.3
20260504224555 49 265 1.0 7.0 0.00 1.08 0.83 71 1002.4
20260504223103 50 53 1.0 15.0 0.00 1.08 0.83 64 1002.1
20260504221605 51 0 4.0 17.0 0.00 1.08 0.83 64 1001.9
20260504220135 51 0 3.0 14.0 0.00 1.08 0.83 61 1001.7
20260504214558 52 107 3.0 11.0 0.00 1.21 0.83 61 1001.4
20260504213123 53 221 5.0 14.0 0.00 1.21 0.83 60 1001.3
20260504211557 53 243 4.0 17.0 0.00 1.21 0.83 60 1001.0
20260504210101 54 184 7.0 14.0 0.00 1.21 0.83 59 1001.0
20260504204604 54 226 5.0 16.0 0.00 1.27 0.83 60 1000.7
20260504203100 53 220 8.0 27.0 0.00 1.27 0.83 60 1000.4
20260504201609 53 217 7.0 21.0 0.00 1.27 0.83 66 1000.4
20260504200108 53 205 6.0 23.0 0.00 1.27 0.83 66 1000.3
20260504194555 53 265 4.0 22.0 0.00 1.33 0.83 69 1000.0
20260504193055 52 184 9.0 24.0 0.00 1.33 0.83 70 999.5
20260504191556 52 208 10.0 27.0 0.00 1.33 0.83 72 999.5
20260504190057 52 263 12.0 25.0 0.00 1.33 0.83 74 999.3
20260504184559 50 227 7.0 20.0 0.00 1.39 0.83 78 999.1
20260504183059 50 266 8.0 23.0 0.00 1.39 0.83 81 998.8
20260504181556 49 232 9.0 29.0 0.00 1.39 0.83 83 998.9
20260504180056 48 262 6.0 18.0 0.00 1.39 0.83 85 998.6
20260504174559 47 230 7.0 22.0 0.00 1.39 0.83 86 998.3
20260504173059 46 225 7.0 22.0 0.00 1.39 0.83 89 998.1
20260504171558 46 223 8.0 21.0 0.00 1.39 0.83 90 997.8
20260504170132 45 213 3.0 31.0 0.00 1.39 0.83 92 997.6
20260504100103 36 234 5.0 24.0 0.03 0.78 0.22 98 982.8
20260504081556 37 261 2.0 8.0 0.04 0.73 0.17 100 978.0
20260504044557 39 0 0.0 6.0 0.02 0.60 0.04 100 974.5
20260504043100 39 108 5.0 12.0 0.02 0.58 0.03 100 974.7